sat.trackr.live / text

‹ back to catalog

STARLINK-37765

NORAD 69337 · 2026-122J

PAYLOAD ACTIVE UNKNOWN

§ Identity

Operator
Country
US
Launch date
2026-06-03
Launch site
AFWTR
Launch vehicle
Mass (kg)
RCS (m²)

Purposes: comms

External: N2YO · Heavens-Above · Gunter

§ Orbital elements

Epoch: 2026-09-20T00:25:31.898784Z

Period
93.90 min
Inclination
97.2840°
Eccentricity
0.0001008
Mean motion
15.33466901 rev/d
Perigee alt
464.8 km
Apogee alt
466.2 km
Semi-major
6,843.6 km
B*
4.1111e-4
RAAN
291.6147°
Arg perigee
85.4416°
Mean anomaly
274.6942°
Rev number
1,672

§ Raw data

STARLINK-377651 69337U 26122J   26263.01773031  .00013230  00000+0  41111-3 0  99912 69337  97.2840 291.6147 0001008  85.4416 274.6942 15.33466901 16725

JSON: /api/v1/satellites/69337 · /tle

For live sub-satellite position, see the globe view (requires WebGL).

§ Visibility from observer

Set your observer location to see the next 7 days of passes ≥ 10°. The values pass through the URL so the page stays shareable.

No JS? Fill the form by hand. The geolocation button needs JavaScript.